Location: Burleson Alternative School
(32.5290°N, 97.3406°W)
Time: 09:51:23
(UTC+00:00)

Vanguard 2 Rocket - Pass Details

Date: 17 November 2025
Orbit: 553 x 3287 km, 32.9° (Epoch: 07 December)

Event Time Altitude Azimuth Distance (km) Brightness Sun altitude
Rises 02:05:51 0° 275° (W) 2,763 10.5 -33.2°
Reaches altitude 10° 02:07:49 10° 275° (W) 1,948 9.4 -33.6°
Enters shadow 02:09:35 26° 276° (W) 1,265 8.1 -34.0°
